Probability
0 0 0 0 0 0 0 0 0 0 0 0 0 0 0 0 0 0 0 0 0 0 0 0 0 0 0 0 0 0 0 0 0 0 0 0 0 0 0 0 0 0 0 0
0 0 0 0 0 0 0 0 0 0 0 0 0 0 0 0 0 0 0 0 0 0 0 0 0 0 0 0 0 0 0 0 0 0 0 0 0 0 0 0 0 0 0 0
0 0 0 0 0 0 0 0 0 0 0 0 0 0 0 0 0 0 0 0 0 0 0 0 0 0 0 0 0 0 0 0 0 0 0 0 0 0 0 0 0 0 0 0
0 0 0 0 0 0 0 0 0 0 0 0 0 0 0 0 0 0 0 0 0 0 0 0 0 0 0 0 0 0 0 0 0 0 0 0 0 0 0 0 0 0 0 0
0 0 0 0 0 0 0 0 0 0 0 0 0 0 0 0 0 0 0 0 0 0 0 0 0 0 0 0 0 0 0 0 0 0 0 0 0 0 0 0 0 0 0 0
0 0 0 0 0 0 0 0 0 0 0 0 0 0 0 0 0 0 0 0 0 0 0 0 0 0 0 0 0 0 0 0 0 0 0 0 0 0 0 0 0 0 0 0
0 0 0 0 0 0 0 0 0 0 0 0 0 0 0 0 0 0 0 0 0 0 0 0 0 0 0 0 0 0 0 0 0 0 0 0 0 0 0 0 0 0 0 0
0 0 0 0 0 0 0 0 0 0 0 0 0 0 0 0 0 0 0 0 0 0 0 0 0 0 0 0 0 0 0 0 0 0 0 0 0 0 0 0 0 0 0 0
0 0 0 0 0 0 0 0 0 0 0 0 0 0 0 0 0 0 0 0 0 0 0 0 0 0 0 0 0 0 0 0 0 0 0 0 0 0 0 0 0 0 0 0
0 0 0 0 0 0 0 0 0 0 0 0 0 0 0 0 0 0 0 0 0 0 0 0 0 0 0 0 0 0 0 0 0 0 0 0 0 0 0 0 0 0 0 0
0 0 0 0 0 0 0 0 0 0 0 0 0 0 0 0 0 0 0 0 0 0 0 0 0 0 0 0 0 0 0 0 0 0 0 0 0 0 0 0 0 0 0 0
0 0 0 0 0 0 0 0 0 0 0 0 0 0 0 0 0 0 0 0 0 0 0 0 0 0 0 0 0 0 0 0 0 0 0 0 0 0 0 0 0 0 0 0
0 0 0 0 0 0 0 0 0 0 0 0 0 0 0 0 0 0 0 0 0 0 0 0 0 0 0 0 0 0 0 0 0 0 0 0 0 0 0 0 0 0 0 0
0 0 0 0 0 0 0 0 0 0 0 0 0 0 0 0 0 0 0 0 0 0 0 0 0 0 0 0 0 0 0 0 0 0 0 0 0 0 0 0 0 0 0 0
0 0 0 0 0 0 0 0 0 0 0 0 0 0 0 0 0 0 0 0 0 0 0 0 0 0 0 0 0 0 0 0 0 0 0 0 0 0 0 0 0 0 0 0
0 0 0 0 0 0 0 0 0 0 0 0 0 0 0 0 0 0 0 0 0 0 0 0 0 0 0 0 0 0 0 0 0 0 0 0 0 0 0 0 0 0 0 0
0 0 0 0 0 0 0 0 0 0 0 0 0 0 0 0 0 0 0 0 0 0 0 0 0 0 0 0 0 0 0 0 0 0 0 0 0 0 0 0 0 0 0 0
0 0 0 0 0 0 0 0 0 0 0 0 0 0 0 0 0 0 0 0 0 0 0 0 0 0 0 0 0 0 0 0 0 0 0 0 0 0 0 0 0 0 0 0
0 0 0 0 0 0 0 0 0 0 0 0 0 0 0 0 0 0 0 0 0 0 0 0 0 0 0 0 0 0 0 0 0 0 0 0 0 0 0 0 0 0 0 0
0 0 0 0 0 0 0 0 0 0 0 0 0 0 0 0 0 0 0 0 0 0 0 0 0 0 0 0 0 0 0 0 0 0 0 0 0 0 0 0 0 0 0 0
0 0 0 0 0 0 0 0 0 0 0 0 0 0 0 0 0 0 0 0 0 0 0 0 0 0 0 0 0 0 0 0 0 0 0 0 0 0 0 0 0 0 0 0
0 0 0 0 0 0 0 0 0 0 0 0 0 0 0 0 0 0 0 0 0 0 0 0 0 0 0 0 0 0 0 0 0 0 0 0 0 0 0 0 0 0 0 0
0 0 0 0 0 0 0 0 0 0 0 0 0 0 0 0 0 0 0 0 0 0 0 0 0 0 0 0 0 0 0 0 0 0 0 0 0 0 0 0 0 0 0 0
0 0 0 0 0 0 0 0 0 0 0 0 0 0 0 0 0 0 0 0 0 0 0 0 0 0 0 0 0 0 0 0 0 0 0 0 0 0 0 0 0 0 0 0
0 0 0 0 0 0 0 0 0 0 0 0 0 0 0 0 0 0 0 0 0 0 0 0 0 0 0 0 0 0 0 0 0 0 0 0 0 0 0 0 0 0 0 0
0 0 0 0 0 0 0 0 0 0 0 0 0 0 0 0 0 0 0 0 0 0 0 0 0 0 0 0 0 0 0 0 0 0 0 0 0 0 0 0 0 0 0 0
0 0 0 0 0 0 0 0 0 0 0 0 0 0 0 0 0 0 0 0 0 0 0 0 0 0 0 0 0 0 0 0 0 0 0 0 0 0 0 0 0 0 0 0
Wind_Speed
1 4 10 9 9 9 8 4 2 2 2 4 5 4 5 7 8 6 6 7 8 8 8 8 8 9 9 9 10 10 9 10 12 12 12 11 10 10 10 10 10 9 8 8
4 6 10 10 9 7 6 5 3 3 1 3 4 5 7 9 9 8 9 10 10 10 10 10 10 10 10 10 10 9 9 11 11 10 10 10 11 11 10 10 10 9 9 9
4 4 4 6 6 5 4 4 4 2 4 6 6 8 9 9 8 9 12 13 12 11 11 11 11 10 10 10 9 8 9 10 10 10 10 10 10 9 9 10 10 9 9 9
1 6 3 2 1 4 5 5 4 1 4 5 6 8 7 8 8 11 12 12 12 11 10 10 10 9 9 9 9 9 9 9 9 9 10 10 9 9 9 8 7 8 9 9
3 1 1 0 4 3 1 2 3 3 6 7 7 6 6 9 9 11 12 11 11 10 11 10 10 11 11 12 11 11 11 10 9 9 9 9 9 9 8 6 7 7 6 8
3 1 2 3 5 4 2 2 2 5 6 7 8 7 7 9 10 10 10 9 9 9 9 11 11 11 12 12 12 12 12 11 10 9 9 10 9 8 7 6 7 7 8 8
2 1 2 3 5 5 4 7 6 5 6 6 6 7 11 12 10 9 9 9 9 10 10 11 12 12 13 14 14 14 13 12 12 11 10 10 9 8 7 7 7 7 8 7
2 1 5 4 4 3 5 5 5 5 5 6 8 9 9 9 10 10 9 10 11 11 12 13 12 12 14 15 15 14 13 13 13 11 11 10 8 7 7 7 7 7 6 6
6 6 5 1 3 4 4 3 4 5 6 7 8 8 9 8 9 9 10 12 11 13 15 14 13 13 16 16 15 14 13 13 12 11 9 8 8 7 6 6 6 6 5 5
2 2 4 3 2 0 0 2 4 5 6 6 7 8 8 8 9 10 10 12 12 15 16 17 16 15 15 16 14 13 12 11 10 9 8 7 6 6 5 5 5 5 5 6
1 1 1 2 2 2 2 4 5 6 6 6 7 7 7 8 10 10 11 12 13 15 16 18 17 17 16 14 13 12 11 10 8 7 6 6 5 5 6 5 6 6 5 5
5 5 4 4 3 2 4 5 5 6 7 7 6 7 8 9 9 11 14 14 15 16 16 17 17 16 15 13 12 11 9 8 5 5 4 4 3 3 5 6 8 10 9 6
6 5 5 2 1 2 3 4 5 5 6 6 7 6 8 9 10 12 14 15 16 16 17 16 15 15 14 13 12 10 8 7 5 4 3 2 2 2 2 1 1 3 5 6
5 5 2 1 0 2 3 4 5 6 5 6 6 7 8 9 12 14 14 15 15 16 15 15 14 14 14 13 11 10 8 7 5 3 3 2 1 1 1 2 1 1 1 3
5 5 4 3 2 3 3 4 5 6 6 7 6 7 9 11 13 14 14 14 14 15 15 14 14 14 13 12 11 10 8 5 3 3 2 1 1 0 1 2 2 3 2 3
5 5 5 4 3 3 3 4 4 6 6 6 7 9 10 11 12 13 13 14 15 16 15 14 14 14 12 11 10 8 7 9 6 2 2 2 1 1 1 2 2 3 3 3
5 3 3 2 1 2 2 3 4 5 5 6 8 9 10 11 13 14 15 15 14 13 12 12 14 14 12 10 9 7 6 6 8 3 2 2 1 1 1 2 2 3 2 3
7 6 7 5 3 1 3 4 5 5 5 6 8 8 9 11 12 14 15 15 14 14 13 14 15 15 12 9 7 6 5 5 4 3 2 2 2 2 2 2 3 4 3 3
8 8 7 6 4 2 1 3 4 4 5 6 7 8 9 9 10 12 13 14 14 15 17 18 20 14 11 10 11 5 5 5 4 3 3 3 3 3 3 3 4 4 4 3
7 7 7 5 4 2 1 3 4 4 5 6 7 8 9 10 11 12 13 11 9 11 16 18 16 12 10 9 11 5 5 4 4 3 3 2 3 3 3 4 4 3 3 3
8 7 7 5 2 1 2 3 3 4 5 6 6 7 8 9 9 10 11 11 13 16 18 17 12 11 10 9 8 4 4 3 3 3 3 2 2 3 3 3 3 3 3 3
7 7 6 4 2 1 3 2 2 3 4 5 6 7 8 9 10 10 9 7 12 18 15 11 11 15 16 11 5 4 4 3 2 2 2 2 2 2 3 3 3 3 3 3
7 6 6 5 3 2 2 2 2 2 3 4 6 6 7 7 6 8 10 10 11 18 13 10 17 22 18 9 6 5 4 4 3 2 1 1 2 2 3 3 3 3 3 3
7 7 6 5 3 1 1 2 2 1 2 3 4 5 5 6 6 5 6 11 15 16 11 13 19 20 15 9 8 7 6 5 4 2 2 2 2 2 2 3 3 3 3 4
7 7 6 5 3 3 3 1 1 2 2 3 4 5 4 3 5 7 8 10 14 14 11 14 19 18 12 10 10 9 8 7 6 3 2 2 2 2 3 3 3 3 3 3
7 6 5 5 5 4 3 2 1 0 1 2 3 4 4 5 6 6 7 9 12 13 11 10 12 13 10 10 10 10 9 9 8 6 4 3 3 3 3 3 4 3 3 2
6 5 4 3 3 4 3 2 2 1 1 1 2 3 5 5 6 7 8 8 9 9 9 10 10 10 10 10 10 10 10 9 9 8 6 5 3 3 3 3 3 3 2 2
Wind_Direction
3 81 85 75 65 65 72 82 91 335 95 4 352 347 331 325 322 327 328 318 306 295 283 275 269 263 257 254 250 245 240 236 237 238 239 239 238 238 237 234 237 236 238 242
23 100 97 73 52 49 50 43 34 69 80 318 320 333 332 328 324 318 312 308 302 295 289 283 277 273 269 263 257 248 241 239 238 236 235 234 234 234 234 234 236 233 233 235
331 315 76 31 24 47 45 39 70 57 307 313 328 328 318 314 310 306 309 308 303 298 293 290 288 285 285 280 276 266 255 250 243 236 233 232 232 230 229 231 231 230 231 229
10 24 41 221 63 73 99 92 61 21 307 309 303 296 290 296 298 301 302 302 302 301 300 298 297 300 297 295 290 282 274 268 259 248 241 233 227 225 226 225 222 225 229 227
74 22 184 345 6 5 348 149 49 356 327 318 307 310 290 281 287 292 297 301 303 306 309 311 312 311 309 304 298 291 286 280 276 270 262 247 232 225 221 219 222 221 221 221
71 18 250 273 318 316 32 213 345 354 326 314 332 332 295 295 299 301 304 307 312 317 316 315 312 312 310 306 302 296 291 286 279 272 267 257 242 232 225 219 223 223 224 220
67 300 259 296 322 37 61 276 298 307 306 309 306 274 286 306 312 313 314 315 317 316 313 309 307 306 302 298 294 291 288 283 278 269 262 258 248 238 231 227 224 222 224 224
94 3 273 318 42 77 237 254 283 292 295 295 289 290 300 310 315 319 320 316 316 314 312 308 305 303 300 297 294 292 288 283 278 269 264 265 249 240 230 223 222 222 223 229
174 204 221 149 146 196 211 260 284 292 299 302 307 307 313 316 319 318 316 316 316 316 314 312 309 304 302 300 298 294 290 285 279 271 260 255 249 242 233 220 218 218 213 221
117 163 170 153 150 259 317 312 309 312 311 319 317 316 320 320 320 319 319 320 322 321 320 319 316 312 304 302 301 295 290 286 282 273 262 253 246 238 229 221 217 215 212 217
159 202 159 342 343 349 7 357 342 330 322 326 328 325 322 321 321 321 323 323 323 323 320 318 317 315 313 310 307 302 297 291 286 276 264 255 244 234 227 222 212 207 209 204
208 220 193 254 283 29 26 352 336 335 331 330 333 325 326 323 322 324 326 325 324 323 321 319 319 318 319 318 317 313 309 304 295 284 273 260 249 254 237 234 235 225 218 201
170 178 177 211 40 32 14 349 343 341 336 332 328 328 328 324 323 326 325 327 326 323 320 319 320 321 323 323 323 320 314 311 304 295 288 276 249 238 249 286 273 217 208 201
157 143 132 127 47 17 13 353 349 343 335 328 325 328 328 323 324 328 328 326 323 321 321 322 323 324 325 327 328 327 324 324 327 310 303 290 263 240 200 172 144 94 95 151
149 145 157 143 69 27 9 357 352 338 329 330 330 331 328 328 327 326 325 325 325 326 327 328 329 328 328 329 331 330 329 325 324 326 329 323 291 219 166 156 144 132 113 96
144 125 113 93 56 20 5 357 346 329 327 329 330 327 324 323 323 325 329 332 331 329 328 329 331 328 326 327 331 332 329 337 346 342 347 354 7 88 122 126 132 139 146 144
143 147 134 111 72 26 2 345 332 323 325 327 322 321 324 328 332 335 335 332 327 323 325 331 331 328 324 325 331 332 332 335 350 354 350 350 359 43 115 122 131 138 142 150
151 155 153 145 139 68 357 343 330 327 322 313 318 326 330 334 334 332 330 329 331 333 338 337 333 331 327 328 333 332 333 334 342 347 349 4 24 59 89 105 113 114 109 123
138 136 131 123 120 104 2 322 317 318 316 318 326 327 326 326 329 331 331 333 339 341 338 333 329 329 329 334 339 328 335 341 347 350 358 24 47 62 81 94 99 105 113 117
137 134 129 120 109 96 327 311 319 320 315 321 329 331 334 335 335 334 333 333 337 336 329 327 329 331 330 329 335 326 332 342 352 357 10 36 58 70 81 91 97 102 104 107
143 140 133 125 115 35 318 316 320 316 317 329 335 332 329 327 331 336 339 338 337 338 334 329 334 336 334 330 325 324 331 344 358 6 19 38 67 83 92 95 102 107 108 107
152 148 144 142 146 282 297 304 307 319 331 338 337 337 339 339 338 339 337 332 330 333 335 334 340 338 339 339 340 341 343 346 355 4 20 41 71 86 97 104 104 104 103 103
160 160 157 164 180 232 290 310 315 333 345 346 341 341 340 335 333 339 339 336 335 333 334 336 337 340 345 353 355 356 356 358 356 5 32 66 84 95 104 110 110 109 108 104
167 168 172 177 169 161 278 290 306 339 359 351 341 341 343 342 337 336 326 328 336 336 338 336 340 346 353 2 3 4 5 4 1 8 36 78 102 112 117 118 113 112 115 118
173 172 170 169 174 195 211 221 23 15 12 350 342 346 351 352 339 335 337 340 343 346 345 344 349 355 3 4 7 8 8 7 7 15 34 64 95 110 120 122 122 126 131 137
178 179 181 183 181 181 175 154 137 256 8 356 343 344 350 349 345 345 345 345 348 349 352 352 353 358 2 4 6 8 8 7 11 16 25 47 70 85 104 120 130 134 142 148
184 178 169 165 165 163 158 150 150 160 131 66 6 350 354 352 353 355 355 354 355 355 355 356 358 0 2 3 5 8 11 11 12 13 16 29 48 65 83 95 98 102 117 127